Tracking 28920 objects as of 25-May-2024
HD Live streaming from Space Station
objects crossing your sky now

STARLINK-1629

Track STARLINK-1629 now!
10-day predictions
STARLINK-1629 is classified as:


NORAD ID: 46150
Int'l Code: 2020-057AK
Perigee: 553.6 km
Apogee: 555.2 km
Inclination: 53.1 °
Period: 95.6 minutes
Semi major axis: 6925 km
RCS: Unknown
Launch date: August 18, 2020
Source: United States (US)
Launch site: AIR FORCE EASTERN TEST RANGE (AFETR)
Your satellite tracking list
Your tracking list is empty




NASA's NSSDC Master Catalog

Two Line Element Set (TLE):
1 46150U 20057AK  24145.93637443 -.00001539  00000-0 -84493-4 0  9997
2 46150  53.0538  11.4352 0001183  80.8872 279.2251 15.06386951207533
Source of the keplerian elements: AFSPC